Location: Newark
(27.5900°N, 83.4900°E)
Time: 11:00:16
(UTC+00:00)

Hubble Space Telescope - Pass Details

Date: 16 December 2019
Orbit: 536 x 540 km, 28.5° (Epoch: 28 January)

Event Time Altitude Azimuth Distance (km) Brightness Sun altitude
Exits shadow 00:08:28 17° 259° (W) 1,399 2.4 -13.2°
Maximum altitude 00:11:36 87° 170° (S) 540 0.7 -12.6°
Drops below altitude 10° 00:15:45 10° 82° (E) 1,787 4.5 -11.7°
Sets 00:18:01 0° 82° (E) 2,678 5.5 -11.2°
